Tracking 31027 objects as of 19-Jul-2025
HD Live streaming from Space Station
objects crossing your sky now

COSMOS 1174 DEB

Track COSMOS 1174 DEB now!
10-day predictions


NORAD ID: 12354
Int'l Code: 1980-030Y
Perigee: 395.3 km
Apogee: 827.6 km
Inclination: 66.1 °
Period: 96.8 minutes
Semi major axis: 6982 km
RCS: 0.107 m2 (medium)
Launch date: April 18, 1980
Source: Commonwealth of Independent States (former USSR) (CIS)
Launch site: TYURATAM MISSILE AND SPACE COMPLEX (TTMTR)

Note: This is SATELLITE DEBRIS
Your satellite tracking list
ATLAS 5 CENTAUR DEB
Track 1 satellite(s)




NASA's NSSDC Master Catalog

Two Line Element Set (TLE):
1 12354U 80030Y   25199.48057204  .00007671  00000-0  34503-3 0  9991
2 12354  66.1019 108.6623 0309573  89.5278 274.1306 14.87971445347256
Source of the keplerian elements: AFSPC